Regional Weather Roundup
Issued by NWS

Home | Current Version | Previous Version | Text Only | Print | Product List | Glossary On
Versions: 1 2 3 4 5 6 7 8 9 10 11 12 13 14 15 16 17 18 19 20 21 22 23 24 25 26 27 28 29 30 31 32 33 34 35 36 37 38 39 40 41 42 43 44 45 46 47 48 49 50
082
ASUS44 KLUB 111110
RWRTX
WEST TEXAS WEATHER ROUNDUP
NATIONAL WEATHER SERVICE LUBBOCK TX
500 AM CST THU FEB 11 2016

NOTE: "FAIR" INDICATES FEW OR NO CLOUDS BELOW 12,000 FEET WITH NO
SIGNIFICANT WEATHER AND/OR OBSTRUCTIONS TO VISIBILITY.

TXZ004-006>008-010-012-014-016-OKZ002-111200-
TEXAS PANHANDLE/OKLAHOMA PANHANDLE

CITY           SKY/WX    TMP DP  RH WIND       PRES   REMARKS
AMARILLO       CLOUDY    36  19  50 N10       30.14R WCI  28
BORGER         PTCLDY    44  21  40 NE6       30.14R
CANADIAN       CLOUDY    38  25  59 CALM      30.12S
DALHART        CLOUDY    41  18  39 N12       30.18R
DUMAS          CLOUDY    33  19  55 NW9       30.16R WCI  25
GUYMON         CLOUDY    38  22  52 N9        30.17R WCI  31
PAMPA          CLOUDY    39  22  51 N5        30.14R
PERRYTON       CLOUDY    37  27  68 NW9       30.15R WCI  30
$$

TXZ026-029-035-045-048-111200-
SOUTHERN PANHANDLE/SOUTH PLAINS/ROLLING PLAINS

CITY           SKY/WX    TMP DP  RH WIND       PRES   REMARKS
CHILDRESS      CLOUDY    46  21  37 NE5       30.06R
SEMINOLE       CLOUDY    36  19  50 W3        30.12S
LUBBOCK        CLEAR     31  17  56 W6        30.08S WCI  25
PLAINVIEW      CLOUDY    30  17  57 NW6       30.07S WCI  24
SNYDER           N/A     45  24  43 SW8       30.10S
$$

TXZ052-054-060>062-072-078-127-140-154-169-111200-
PERMIAN BASIN/CONCHO VALLEY/BIG COUNTRY/EDWARDS PLATEAU

CITY           SKY/WX    TMP DP  RH WIND       PRES   REMARKS
ABILENE        CLEAR     55  26  32 SW12      30.07R
BIG SPRING     CLOUDY    37  21  52 CALM      30.13S
BROWNWOOD      CLEAR     39  27  60 CALM      30.11S
JUNCTION       CLEAR     38  26  62 W5        30.14S WCI  34
MIDLAND        CLEAR     43  24  47 SW6       30.11S
ODESSA         CLOUDY    42  22  44 W7        30.12S
SAN ANGELO     CLEAR     53  26  35 SW9       30.10S
SONORA         CLEAR     34  25  69 CALM      30.18S
SWEETWATER     CLEAR     55  24  29 SW21      30.10S
WINK           CLOUDY    32  19  58 N6        30.12S WCI  26
$$

TXZ055-058-074-075-080-082-111200-
FAR WEST/SOUTHWEST MOUNTAINS/TRANS PECOS

CITY           SKY/WX    TMP DP  RH WIND       PRES   REMARKS
ALPINE         CLOUDY    49  15  25 SW5       30.27R
DRYDEN           N/A     42  21  43 W7        30.11F
EL PASO        MOCLDY    40  17  39 N7        30.22S
FORT STOCKTON  CLEAR     49  20  31 SW15      30.13F
GUADALUPE PASS CLEAR     47  14  26 SW13G22   30.23F
MARFA          CLOUDY    25  12  58 N5        30.25R WCI  19
PECOS          CLOUDY    40  19  41 W7        30.14S
PRESIDIO       FAIR      46  15  29 N7        30.18S
$$

TXZ014-016-019-021>030-083-111200
TEXAS TECH WEST TEXAS MESONET/TEXAS PANHANDLE/NORTHERN SOUTH PLAINS

CITY           SKY/WX    TMP DP  RH WIND       PRES   REMARKS
ABERNATHY 5ENE   N/A     31  20  62 W7        30.08F WCI  25
AMARILLO 9NNE    N/A     24  16  72 CALM      30.15R
AMARILLO 7SSE    N/A     39  20  46 N10       30.14R WCI  32
AMHERST 1NE      N/A     38  16  40 NW10      30.10S WCI  32
BOOTLEG 11WNW    N/A     35  12  38 NW12      30.19R WCI  27
CANADIAN 6E      N/A     39  25  55 N10       30.11R WCI  33
CAPROCK CYN SP   N/A     47  20  33 N8        30.09S
CHILDRESS 2NNE   N/A     42  21  43 N10       30.06S
CLARENDON 2WSW   N/A     35  19  53 NW3       30.11R
CLAUDE 12SW      N/A     35  18  49 N9        30.12R WCI  28
DIMMITT 2NE      N/A     31  16  54 NW15      30.12R WCI  20
FLOYDADA 2NNE    N/A     30  17  59 W8        30.08R WCI  22
FRIONA 2NE       N/A     36  17  45 N12       30.15R WCI  27
GOODLETT 3W      N/A     43  23  44 N14       30.05R
HART 3N          N/A     37  17  44 N15       30.09R WCI  28
HEREFORD 2NW     N/A     35  17  47 N13       30.13R WCI  26
MCLEAN 1E        N/A     42  21  44 N12       30.09R
MEMPHIS 1NE      N/A     43  22  43 N10       30.08R
MULESHOE 2SSW    N/A     32  18  56 W8        30.12R WCI  25
OLTON 6S         N/A     31  18  60 NW9       30.09S WCI  22
PALO DURO SP     N/A     44  18  34 N13       30.14R
PAMPA 2E         N/A     40  23  50 N12       30.12R WCI  32
PLAINVIEW 1S     N/A     33  18  54 NW6       30.08S WCI  28
TULIA 2ENE       N/A     31  20  62 N10       30.10R WCI  22
TURKEY 2WSW      N/A     44  20  38 NW10      30.08R
UMBARGER 3NNE    N/A     37  17  44 N13       30.14R WCI  29
$$

TXZ033>036-039>041-045>048-111200
TEXAS TECH WEST TEXAS MESONET/SOUTH PLAINS

CITY           SKY/WX    TMP DP  RH WIND       PRES   REMARKS
AIKEN 3WSW       N/A     34  19  55 NW10      30.09S WCI  26
ANDREWS 2NE      N/A     47  18  30 W10       30.12R
ANTON 6SSW       N/A     33  18  53 W12       30.09F WCI  24
BROWNFIELD 2S    N/A     35  18  49 NW8       30.09S WCI  29
DENVR CTY 7WNW   N/A     43  18  36 W16       30.10S
GAIL 2ESE        N/A     48  20  33 SW9       30.08F
LAMESA 2SE       N/A     33  22  61 W3        30.11S
LEVELLAND 4S     N/A     31  17  54 W9        30.09S WCI  23
LUBBOCK 3WNW     N/A     33  17  51 W5        30.09S WCI  28
MORTON 1ENE      N/A     36  18  47 W7        30.11R WCI  31
ODONNELL 1N      N/A     35  19  52 W7        30.09F WCI  29
PLAINS 3N        N/A     40  20  44 W12       30.11R WCI  33
RALLS 1SE        N/A     36  17  46 W7        30.09S WCI  30
REESE CENTER     N/A     32  17  54 W8        30.08S WCI  25
SEAGRAVES 1SW    N/A     35  19  53 W2        30.10S
SEMINOLE 2NNE    N/A     40  17  40 W3        30.11R
SLATON 2NE       N/A     41  17  37 W10       30.08F
SNYDER 3E        N/A     44  24  45 S8        30.09S
SUNDOWN 8SW      N/A     40  18  41 NW12      30.10S WCI  32
TAHOKA 3NNE      N/A     42  18  38 SW9       30.08F
WOLFFORTH 6SSW   N/A     33  15  46 W7        30.09S WCI  27
$$

TXZ031-032-036>038-042>044-111200-
TEXAS TECH WEST TEXAS MESONET/ROLLING PLAINS

CITY           SKY/WX    TMP DP  RH WIND       PRES   REMARKS
ASPERMONT 3NE    N/A     50  23  34 W7        30.06R
FLUVANNA 3WNW    N/A     44  21  40 SW12      30.09S
GRAHAM 5SSW      N/A     39  19  44 W12       30.08S WCI  32
GUTHRIE 10WSW    N/A     49  21  32 N8        30.08R
HASKELL 1NW      N/A     48  24  39 SW10      30.05R
JAYTON 1SSE      N/A     45  22  39 W9        30.06F
KNOX CITY 3NW    N/A     46  23  40 N9        30.07R
LK A HENRY 1NW   N/A     47  22  36 SW8       30.07S
NORTHFIELD 1S    N/A     46  22  37 N10       30.07R
ODELL 4ENE       N/A     42  27  56 N12       30.06R
PADUCAH 10SW     N/A     49  19  30 W9        30.05S
POST 1NE         N/A     47  19  32 SW12      30.07S
RRING SPRGS 3N   N/A     44  19  37 W5        30.08R
SEYMOUR 3NW      N/A     38  28  69 SW5       30.05S WCI  34
SPUR 1W          N/A     41  20  42 W1        30.07R
WEINERT 2NNE     N/A     44  26  49 W6        30.06R
WHITE RVR 6NE    N/A     52  16  24 W8        30.07R
$$

TXZ052-054-060>062-072-078-127-140-154-169-111200-
TEXAS TECH WEST TEXAS MESONET/PERMIAN BASIN/
CONCHO VALLEY/BIG COUNTRY/EDWARDS PLATEAU

CITY           SKY/WX    TMP DP  RH WIND       PRES   REMARKS
COYANOSA 2N      N/A     35  23  60 SW2       30.14R
JUNCTION 1SSW    N/A     31  25  77 CALM      30.15S
MERTZON 3NNE     N/A     50  26  38 S10       30.12S
SAN ANGELO 7NW   N/A     52  22  31 SW6       30.11S
STRLNG CT 4WSW   N/A     50  25  37 S13       30.11R
ST LAWRNCE 5SW   N/A     39  23  52 S8        30.12R WCI  33
SWEETWATR 11SW   N/A     49  25  38 W6        30.11S
WALL 1E          N/A     53  25  33 S17       30.10S
$$

TXZ055-058-074-075-080-082-111200-
TEXAS TECH WEST TEXAS MESONET/FAR WEST/SOUTHWEST MOUNTAINS/TRANS PECOS

CITY           SKY/WX    TMP DP  RH WIND       PRES   REMARKS
PRSMN GAP BBNP   N/A     41  11  28 W1        30.18R
GUADLPE MTN NP   N/A     56  11  16 W23       30.23S
$$




USA.gov is the U.S. government's official web portal to all federal, state and local government web resources and services.